Regional Weather Roundup
Issued by NWS

Home | Current Version | Previous Version | Graphics & Text | Print | Product List | Glossary On
Versions: 1 2 3 4 5 6 7 8 9 10 11 12 13 14 15 16 17 18 19 20 21 22 23 24 25 26 27 28 29 30 31 32 33 34 35 36 37 38 39 40 41 42 43 44 45 46 47 48 49 50
000
ASUS43 KTOP 280559
RWRKS

WEATHER ROUNDUP FOR KANSAS
NATIONAL WEATHER SERVICE GOODLAND KS
100 AM CDT MON JUL 28 2014

NOTE:  "FAIR" INDICATES FEW OR NO CLOUDS BELOW 12,000 FEET WITH NO
SIGNIFICANT WEATHER AND/OR OBSTRUCTIONS TO VISIBILITY.

KSZ001>006-013>018-027>032-041>047-280700-
NORTHWEST KANSAS

CITY           SKY/WX    TMP DP  RH WIND       PRES   REMARKS
GOODLAND       CLOUDY    67  51  56 S9        30.31F
6HR MIN TEMP:  65; 6HR MAX TEMP:  86;

HAYS           CLEAR     66  52  59 NE5       30.24R
HILL CITY      PTCLDY    66  54  65 CALM      30.25R
6HR MIN TEMP:  66; 6HR MAX TEMP:  89;

RUSSELL        PTCLDY    67  54  63 NE6       30.21R
6HR MIN TEMP:  66; 6HR MAX TEMP:  89;

$$

KSZ061>065-074>080-084>089-280700-
SOUTHWEST KANSAS

CITY           SKY/WX    TMP DP  RH WIND       PRES   REMARKS
DODGE CITY     MOCLDY    68  57  68 SW3       30.26R
6HR MIN TEMP:  67; 6HR MAX TEMP:  87;

ELKHART          N/A     69  60  73 SE6         N/A
GARDEN CITY    MOCLDY    72  57  59 SE5       30.27R
6HR MIN TEMP:  72; 6HR MAX TEMP:  85;

GREAT BEND     PTCLDY    72  55  56 E5        30.21R
LIBERAL        MOCLDY    73  54  49 SE3       30.28S
PRATT          PTCLDY    70  52  52 E5        30.23R
$$

KSZ066>073-081>083-090>101-280700-
SOUTHEAST KANSAS

CITY           SKY/WX    TMP DP  RH WIND       PRES   REMARKS
CHANUTE        CLEAR     68  57  68 N6        30.15R
6HR MIN TEMP:  68; 6HR MAX TEMP:  88;

COFFEYVILLE    HAZE      68  61  78 N7        30.12R VSB 1/2
6HR MIN TEMP:  68; 6HR MAX TEMP:  83;

HUTCHINSON     CLEAR     71  54  54 NE7       30.19R
6HR MIN TEMP:  71; 6HR MAX TEMP:  89;

MEDICINE LODGE   N/A     69  64  84 CALM      30.19R
NEWTON         CLEAR     72  52  49 NE7       30.22S
PARSONS        CLEAR     66  58  75 N5        30.14R
6HR MIN TEMP:  64; 6HR MAX TEMP:  86;

WICHITA INTL   PTCLDY    74  55  51 NE7       30.17R
6HR MIN TEMP:  72; 6HR MAX TEMP:  89;

WICHITA JABRA  CLEAR     67  56  67 NE7       30.17S
6HR MIN TEMP:  67; 6HR MAX TEMP:  90;

WINFIELD       CLEAR     71  58  63 NE5       30.17R
6HR MIN TEMP:  68; 6HR MAX TEMP:  83;

$$

KSZ007>012-019>026-033>040-048>060-102>105-280700-
NORTHEAST KANSAS

CITY           SKY/WX    TMP DP  RH WIND       PRES   REMARKS
CONCORDIA      CLEAR     67  59  75 N5        30.21R
6HR MIN TEMP:  67; 6HR MAX TEMP:  84;

EMPORIA        CLEAR     68  57  68 N3        30.17R
6HR MIN TEMP:  68; 6HR MAX TEMP:  87;

LAWRENCE       CLEAR     66  58  75 N6        30.15R
6HR MIN TEMP:  66; 6HR MAX TEMP:  87;

MANHATTAN      CLEAR     69  58  67 CALM      30.17S
6HR MIN TEMP:  69; 6HR MAX TEMP:  87;

OLATHE IND     CLEAR     64  58  80 N8        30.16R
6HR MIN TEMP:  64; 6HR MAX TEMP:  85;

OLATHE EXE     CLEAR     70  58  65 N8        30.14R
6HR MIN TEMP:  70; 6HR MAX TEMP:  85;

SALINA         CLEAR     74  55  51 NE5       30.19S
6HR MIN TEMP:  73; 6HR MAX TEMP:  90;

TOPEKA BILLARD CLEAR     69  58  67 N7        30.16R
6HR MIN TEMP:  69; 6HR MAX TEMP:  87;

TOPEKA FORBES  CLEAR     70  57  63 N3        30.16R
6HR MIN TEMP:  70; 6HR MAX TEMP:  87;

$$



USA.gov is the U.S. government's official web portal to all federal, state and local government web resources and services.